Location: Kerguer�zec
(48.4509°N, 4.7600°W)
Time: 01:32:29
(UTC+00:00)

ISS - Pass Details

Date: 03 March 2021
Orbit: 418 x 422 km, 51.6° (Epoch: 10 April)

Event Time Altitude Azimuth Distance (km) Brightness Sun altitude
Exits shadow 05:23:57 31° 307° (NW) 770 -2.8 -16.1°
Maximum altitude 05:25:10 46° 1° (N) 572 -3.1 -15.9°
Drops below altitude 10° 05:28:26 10° 76° (ENE) 1,501 0.4 -15.4°
Sets 05:30:35 0° 83° (E) 2,365 2.0 -15.0°
